Airfield :
LOGIN :

Register | Disclaimer

   EN    FR    IT 

 










Legend :    VFR   Marginal VFR   IFR   Intensive IFR   Very Intensive IFR
Visi :
Ceiling :
>= 8 km
>= 3000ft
5 to 8 km
1000 to 3000 ft
1500m to 5 km
500 to 1000 ft
800 to 1500m
200 to 500 ft
< 800m
< 200 ft
Symbols :   Thunderstorms  Fog  Heavy snow  Heavy precipitations  Wind > 20 kt
SIGMETs :     Misc.  Thunderstorms  Icing  Turbulence  Mountain Waves  Volcanic Ashes






- Airport Elevation : 39 ft
- IATA code : TRS


LIPQ - Friuli Venezia Giulia Apt. Trieste

CURRENT METAR :
  • 192120Z AUTO 02003KT 9999 NCD 23/20 Q1013

EXPIRED METARs :
  • 192050Z AUTO 01003KT 9999 NCD 22/20 Q1013
  • 192020Z AUTO VRB01KT 9999 NCD 23/20 Q1013
  • 191950Z AUTO 14002KT 9999 NCD 25/19 Q1013
  • 191920Z AUTO 19002KT 9999 NCD 26/19 Q1013

TAF TAF LIPQ
Valid from the 19 at 18:00 until the 20 at 18:00 UTC


191700Z 1918/2018 VRB04KT CAVOK
BECMG 2010/2012 22010KT
BECMG 2016/2018 VRB05KT



MET'MAP, your aeronautical weather chart ! - Copyright ORBIFLY December 2007 - Disclaimer

ORBIFLY MET'MAP TEAM :

Programming & Development : Alexandra Zaïnal
Concept & original design : Baudouin d'Aumeries
Assistance for programming : Marc-Olivier Méhu
Technical & hardware support : Manuel Goepfert

Contact : metmap@orbifly.com




SOURCES & CREDITS :

   NOAA